User: anonymous   Login
Location: Newark
(49.2191°N, 12.6671°E)
Time: 04:01:15
(UTC+00:00)
Language:

Explorer 7 - Orbit

View from above orbital plane
View from above orbital plane
View from above satellite
View from above satellite

Ground track
Ground track

The orbit data is extracted from the following two-line orbital elements,

1    22U 59009A   20017.84517745 -.00000107  00000-0  15539-4 0  9994
2    22  50.2844  93.3571 0139700  39.5258 321.5779 14.95022845202647
Epoch (UTC): 17 January 2020 20:17:03
Eccentricity: 0.0139700
inclination: 50.2844°
perigee height: 485 km
apogee height: 679 km
right ascension of ascending node: 93.3571°
argument of perigee: 39.5258°
revolutions per day: 14.95022845
mean anomaly at epoch: 321.5779°
orbit number at epoch: 20264

The dashed part of the orbit path shows where the satellite is in the earth's shadow,  

DLR